TimeCST,TemperatureF,Dew PointF,Humidity,Sea Level PressureIn,VisibilityMPH,Wind Direction,Wind SpeedMPH,Gust SpeedMPH,PrecipitationIn,Events,Conditions,WindDirDegrees,DateUTC
12:56 AM,72.0,61.0,68,30.08,10.0,SSE,9.2,20.7,N/A,,Partly Cloudy,160,2013-01-11 06:56:00
1:56 AM,72.0,61.0,68,30.08,10.0,South,6.9,17.3,N/A,,Clear,180,2013-01-11 07:56:00
2:56 AM,69.1,61.0,75,30.10,10.0,NW,5.8,-,N/A,,Clear,310,2013-01-11 08:56:00
3:56 AM,68.0,61.0,78,30.11,10.0,Calm,Calm,-,N/A,,Clear,0,2013-01-11 09:56:00
4:56 AM,64.9,60.1,84,30.10,7.0,Calm,Calm,-,N/A,,Mostly Cloudy,0,2013-01-11 10:56:00
5:56 AM,64.0,59.0,84,30.12,7.0,Calm,Calm,-,N/A,,Overcast,0,2013-01-11 11:56:00
6:56 AM,64.9,60.1,84,30.14,8.0,Calm,Calm,-,N/A,,Overcast,0,2013-01-11 12:56:00
7:56 AM,68.0,61.0,78,30.17,10.0,South,5.8,-,N/A,,Overcast,170,2013-01-11 13:56:00
8:56 AM,71.1,62.1,73,30.18,10.0,Variable,6.9,-,N/A,,Overcast,0,2013-01-11 14:56:00
9:56 AM,75.0,64.0,69,30.18,10.0,South,10.4,17.3,N/A,,Mostly Cloudy,190,2013-01-11 15:56:00
10:05 AM,77.0,64.4,65,30.18,10.0,SW,6.9,-,N/A,,Mostly Cloudy,220,2013-01-11 16:05:00
10:56 AM,77.0,63.0,62,30.16,10.0,SSW,8.1,18.4,N/A,,Mostly Cloudy,210,2013-01-11 16:56:00
11:56 AM,79.0,63.0,58,30.13,10.0,SW,9.2,17.3,N/A,,Mostly Cloudy,220,2013-01-11 17:56:00
12:56 PM,78.1,63.0,60,30.10,10.0,Variable,5.8,-,N/A,,Overcast,0,2013-01-11 18:56:00
1:14 PM,78.8,62.6,57,30.11,10.0,SSW,9.2,-,N/A,,Overcast,210,2013-01-11 19:14:00
1:56 PM,79.0,63.0,58,30.10,10.0,SW,8.1,-,N/A,,Overcast,230,2013-01-11 19:56:00
2:17 PM,78.8,64.4,61,30.10,10.0,Variable,4.6,-,N/A,,Overcast,0,2013-01-11 20:17:00
2:26 PM,78.8,64.4,61,30.10,10.0,SW,10.4,-,N/A,,Overcast,220,2013-01-11 20:26:00
2:35 PM,78.8,62.6,57,30.11,10.0,SSW,5.8,-,N/A,,Overcast,200,2013-01-11 20:35:00
2:45 PM,78.8,64.4,61,30.11,10.0,SSW,8.1,-,N/A,,Overcast,200,2013-01-11 20:45:00
2:56 PM,79.0,64.0,60,30.10,10.0,Variable,5.8,-,N/A,,Overcast,0,2013-01-11 20:56:00
3:12 PM,78.8,64.4,61,30.11,10.0,SW,6.9,-,N/A,,Overcast,230,2013-01-11 21:12:00
3:29 PM,77.0,64.4,65,30.11,10.0,SSW,3.5,-,N/A,,Overcast,200,2013-01-11 21:29:00
3:56 PM,77.0,64.0,64,30.09,10.0,Variable,5.8,-,N/A,,Overcast,0,2013-01-11 21:56:00
4:56 PM,75.0,64.9,71,30.11,10.0,Variable,3.5,-,N/A,,Overcast,0,2013-01-11 22:56:00
5:28 PM,75.2,64.4,69,30.12,10.0,Variable,3.5,-,N/A,,Overcast,0,2013-01-11 23:28:00
5:44 PM,73.4,64.4,73,30.13,10.0,SSW,3.5,-,N/A,,Overcast,200,2013-01-11 23:44:00
5:56 PM,73.9,64.9,73,30.12,10.0,SSW,6.9,-,N/A,,Overcast,200,2013-01-11 23:56:00
6:56 PM,72.0,64.9,78,30.13,10.0,SSW,5.8,-,N/A,,Mostly Cloudy,200,2013-01-12 00:56:00
7:56 PM,71.1,64.9,81,30.13,9.0,SSW,3.5,-,N/A,,Mostly Cloudy,200,2013-01-12 01:56:00
8:11 PM,71.6,64.4,78,30.14,8.0,SSW,3.5,-,N/A,,Partly Cloudy,200,2013-01-12 02:11:00
8:46 PM,69.8,64.4,83,30.15,7.0,Calm,Calm,-,N/A,,Scattered Clouds,0,2013-01-12 02:46:00
8:54 PM,69.8,64.4,83,30.15,6.0,Calm,Calm,-,N/A,,Haze,0,2013-01-12 02:54:00
8:56 PM,69.1,64.0,84,30.14,6.0,Calm,Calm,-,N/A,,Haze,0,2013-01-12 02:56:00
9:11 PM,69.8,64.4,83,30.15,6.0,Calm,Calm,-,N/A,,Haze,0,2013-01-12 03:11:00
9:15 PM,69.8,64.4,83,30.15,6.0,Calm,Calm,-,N/A,,Haze,0,2013-01-12 03:15:00
9:56 PM,69.1,64.0,84,30.13,5.0,South,3.5,-,N/A,,Haze,180,2013-01-12 03:56:00
10:03 PM,69.8,64.4,83,30.14,4.0,South,3.5,-,N/A,,Haze,170,2013-01-12 04:03:00
10:56 PM,69.1,64.0,84,30.13,4.0,Calm,Calm,-,N/A,,Haze,0,2013-01-12 04:56:00
11:30 PM,69.8,64.4,83,30.13,4.0,South,4.6,-,N/A,,Haze,180,2013-01-12 05:30:00
11:56 PM,69.1,64.0,84,30.13,5.0,Variable,5.8,-,N/A,,Haze,0,2013-01-12 05:56:00